Location: Bishopstone
(51.0167°N, 1.9000°W)
Time: 19:13:00
(UTC+00:00)

Cosmos 2333 - Pass Details

Date: 16 September 2019
Orbit: 831 x 865 km, 70.9° (Epoch: 21 October)

Event Time Altitude Azimuth Distance (km) Brightness Sun altitude
Rises 18:52:33 0° 329° (NNW) 3,399 8.0 -5.9°
Reaches altitude 10° 18:55:00 10° 330° (NNW) 2,465 7.3 -6.2°
Maximum altitude 19:00:41 87° 60° (ENE) 853 4.3 -7.1°
Drops below altitude 10° 19:06:22 10° 151° (SSE) 2,472 6.2 -8.0°
Sets 19:08:49 0° 151° (SSE) 3,410 6.9 -8.3°
